Location: Praha
(50.0830°N, 14.4670°E)
Time: 22:42:39
(UTC+01:00)

ISS - Pass Details

Date: 23 November 2021
Orbit: 417 x 423 km, 51.6° (Epoch: 28 November)

Event Time Altitude Azimuth Distance (km) Brightness Sun altitude
Rises 18:32:56 0° 250° (WSW) 2,374 1.4 -22.6°
Reaches altitude 10° 18:35:02 10° 250° (WSW) 1,511 0.1 -22.9°
Enters shadow 18:37:33 47° 246° (WSW) 572 -2.8 -23.3°
